Regional Weather Roundup
Issued by NWS Spokane, WA

Home | Current Version | Previous Version | Text Only | Print | Product List | Glossary On
Versions: 1 2 3 4 5 6 7 8 9 10 11 12 13 14 15 16 17 18 19 20 21 22 23 24 25 26 27 28 29 30 31 32 33 34 35 36 37 38 39 40 41 42 43 44 45 46 47 48 49 50
000
NZUS01 KOTX 211910
RWROTX
EASTERN WASHINGTON/NORTHERN IDAHO ROUNDUP
NATIONAL WEATHER SERVICE, SPOKANE WA
1100 AM PST SUN DEC 21 2014

Note: "fair" indicated few or no clouds below 12,000 feet with no
significant weather and/or obstructions to visibility.

...NORTHEAST WASHINGTON AND NORTHERN IDAHO PANHANDLE...

CITY           SKY/WX    TMP DP  RH WIND       PRES   REMARKS
SPOKANE INTL   MOSUNNY   45  37  73 W21G29    29.77R
SPOKANE DOWNTO MOSUNNY   47  36  65 W7G17     29.79R
COEUR D ALENE  PTSUNNY   45  36  70 SW22G28   29.74R
DEER PARK      MOSUNNY   46  36  68 SW13      29.75R
SANDPOINT      MOSUNNY   45  36  70 W14G22    29.71R

...SOUTHEAST WASHINGTON AND SOUTHERN IDAHO PANHANDLE...

CITY           SKY/WX    TMP DP  RH WIND       PRES   REMARKS
WALLA WALLA    CLOUDY    53  44  71 W22G31    29.92R
PULLMAN/MOSCOW CLOUDY    46  40  79 W16       29.83R
LEWISTON       LGT RAIN  53  38  56 W9        29.83R
LOWELL           N/A     43  41  93 CALM      29.83R

...COLUMBIA BASIN...

CITY           SKY/WX    TMP DP  RH WIND       PRES   REMARKS
EPHRATA        SUNNY     51  39  63 SE7       29.83R
MOSES LAKE     SUNNY     48  40  73 S5        29.86R
TRI CITIES     PTSUNNY   56  40  55 W18G33    29.88R
HERMISTON      CLOUDY    55  42  61 W18G24    29.94R
PENDLETON      CLOUDY    52  40  63 W29G38    29.93R

...EAST SLOPES CASCADES...

CITY           SKY/WX    TMP DP  RH WIND       PRES   REMARKS
THE DALLES     LGT RAIN  53  47  79 W12       29.98R
YAKIMA         PTSUNNY   54  37  52 W13       29.89R
ELLENSBURG     CLOUDY    51  41  68 NW3       29.87R
WENATCHEE      CLOUDY    44  40  85 N6        29.86R
OMAK           SUNNY     43  37  79 SW8       29.79R

...SOUTHERN BRITISH COLUMBIA...

CITY           SKY/WX    TMP DP  RH WIND       PRES   REMARKS
PENTICTON      PTSUNNY   43  37  81 S12G22    29.76R
CRANBROOK      FOG       32  30  93 CALM      29.55R VSB 1/2

...WESTERN MONTANA...

CITY           SKY/WX    TMP DP  RH WIND       PRES   REMARKS
MISSOULA       CLOUDY    40  35  83 NW15      29.69R

...NEIGHBORING CITIES...

CITY           SKY/WX    TMP DP  RH WIND       PRES   REMARKS
SEATTLE        CLOUDY    52  45  77 SW10G20   29.94R
CALGARY        PTSUNNY   39  23  52 N10       29.34R



USA.gov is the U.S. government's official web portal to all federal, state and local government web resources and services.